Weather in Pisarevka

Russia / Voronezh Oblast     49°53′03″N   40°10′52″E
В апреле 2022 года жителям России запретили посещать сайт meteo.paraplan.net по решению Генеральной прокуратуры. Аудитория сайта уменьшилась в 10 раз. Владельцы сайта не видят смысла в поддержке погодного сервера в таких условиях. Сайт будет закрыт в октябре.
temp.,
°C
wind,
m/s
gust,
m/s
humid.,
%
clouds,
%
prec.,
mm/h
press.,
hPa
HPBL,
m
30 september, fri
fri3000:00+15ese2371100 0.0 101646
03:00+15ese3473100 0.0 101781
06:00+15se3575100 0.0 1018119
09:00+17sse4669100 0.0 1018321
12:00+21s45558 0.0 10181061
15:00+23s444691 0.1 10181804
18:00+20se365866 0.0 1019107
21:00+18sse376690 0.0 1019114
1 october, sat
sat100:00+17s4106997 0.0 1019212
03:00+16s3671100 0.0 1019125
06:00+16sse3572100 0.0 1019102
09:00+18s586898 0.9 1020389
12:00+23ssw68545 0.1 10181067
15:00+25sw684756 0.1 10171698
18:00+21sw3362100 0.0 101638
21:00+19s3574100 1.9 101578
2 october, sun
sun200:00+18sw4107799 0.4 1015195
03:00+16sw2284100 0.6 101413
06:00+16s2284100 0.1 101325
09:00+18s3880100 0.6 1012268
12:00+20s4671100 0.9 1011465
15:00+24s5750100 0.9 10081249
18:00+20se4965100 0.0 1006174
21:00+19sse3771100 0.4 1005145
3 october, mon
mon300:00+17e4688100 3.2 1002169
03:00+18s61364100 3.3 1001649
06:00+16sse51377100 1.6 1000710
09:00+13wsw51089100 2.6 1002531
12:00+14wsw677579 0.1 1005776
15:00+14wsw6770100 0.1 10071010
18:00+12wsw587727 0.0 1010723
21:00+10ssw37825 0.0 1012206
4 october, tue
tue400:00+11sw2579100 0.0 1013180
03:00+11sw2380100 0.0 1014150
06:00+11sw2283100 0.0 101692
09:00+12ssw34757 0.0 1017511
12:00+16sw555217 0.1 10171569
15:00+17sw454498 0.1 10181978
18:00+15sw2452100 0.0 1019108
21:00+14sw2357100 0.0 102090